User: anonymous   Login
Location: Unspecified
(0.0000°N, 0.0000°E)
Time: 13:47:34
(UTC+00:00)
Language:

A-11 Canister half - Orbit

View from above orbital plane
View from above orbital plane
View from above satellite
View from above satellite

Ground track
Ground track

The orbit data is extracted from the following two-line orbital elements,

1    53U 60009E   16143.43782561 -.00000085 +00000-0 +00000-0 0  9998
2    53 047.2741 164.4483 0097824 006.1420 354.0546 12.17185884487447
Epoch (UTC): 22 May 2016 10:30:28
Eccentricity: 0.0097824
inclination: 47.2741°
perigee height: 1527 km
apogee height: 1683 km
right ascension of ascending node: 164.4483°
argument of perigee: 6.1420°
revolutions per day: 12.17185884
mean anomaly at epoch: 354.0546°
orbit number at epoch: 48744

The dashed part of the orbit path shows where the satellite is in the earth's shadow,  

DLR